STARLINK-34729 (65364 NORAD) Tracking and Keplerian Element Data

This shows tracking and keplerian element data for the satellite.

Feedback or suggestion? Click here.




ElementValue
Catalog65364
NameSTARLINK-34729
Epoch Orbit1796
Epoch Day353.92484269
Epoch Year2025
RAAN178.6212
Inclination53.1581
Eccentricity0.0001105
Argument of Perigee86.0605
Mean Anonmoly274.0522
Mean Motion15.30205973
Decay Rate0.00017184
L11 65364U 25190P 25353.92484269 .00017184 00000+0 59085-3 0 9993
L22 65364 53.1581 178.6212 0001105 86.0605 274.0522 15.30205973 17968



Live tracking and technical data element details for STARLINK-34729 (NORAD 65364). STARLINK-34729 can be tracked NOW for your location showing map with azimuth and elevation plus other details from your city location.







IsCatalogInMostPopularTable: catalog: 65364, numindb: 3
Update: records affected: 1



GetName: 65364 STARLINK-34729

Hit Count: updated at: Sat, 07 Feb 2026 07:31:11 GMT